Starlink 35901

operational
NORAD ID: 67043 Int'l Des: 2025-294 Owner: SPXS Country: US Constellation: starlink
LEOCIRCULAR

Starlink 35901について

説明を読み込み中...

リアルタイム位置

3D地球を読み込み中...

次回通過

高度履歴

Altitude vs Time

uPlot chart will show altitude changes over time

軌道要素

1 67043C 25294P 25346.87548611 .01007600 00000+0 14565-2 0 3464
2 67043 43.0027 182.5099 0009226 282.7278 327.3562 16.03238494 16
Epoch: Dec 12, 2025 • Age: 57 hours

現在のステータス

高度 255.0 km
速度 7.76 km/s
衛星直下点 -7.61°S, 57.6°W
打ち上げ日 Dec 11, 2025
運用期間 2 days
タイプ internet

技術仕様

分類 Payload
質量 575.00 kg
乾燥質量 530.00 kg
総質量 575.00 kg
長さ 0.30 m
直径 4.10 m
スパン 29.00 m
形状 Box + pan
製造者 SPXS
バスタイプ Starlink V2MO
フェーズステータス In Orbit
所有者/国 SPXS/US

大規模コンステレーション

Loading constellations...